CAPE
0 4 84 222 826 1398 1481 1636 1840 1697 1606 1487 1566 1375 1080 687 560 522 410 290 156 146 348 335 501 353 234 18 2 0 0 0 0 0 0 47 4 0 0 0 0 0 0
0 0 11 39 96 677 996 1405 1434 1464 1418 1293 1272 939 833 579 574 334 372 259 174 125 421 338 283 93 663 442 21 238 0 0 0 15 4 0 0 0 0 0 0 0 0
0 0 11 1 43 489 661 1064 1275 1004 1002 951 968 1170 833 745 648 553 413 309 178 172 304 411 507 498 725 104 82 4 0 0 26 0 0 0 0 0 0 0 0 18 0
0 0 3 41 0 1 50 352 910 913 980 711 924 1180 1370 1033 595 535 496 373 249 107 87 362 371 366 324 445 318 189 153 124 88 12 0 0 0 11 0 0 5 8 0
0 0 0 121 18 0 0 6 100 549 919 820 995 1005 1298 1108 697 520 363 289 299 261 227 326 537 361 195 354 229 223 310 209 60 71 7 0 0 0 6 21 0 0 19
0 0 0 59 84 1 4 0 23 149 140 643 738 848 1046 833 678 305 69 553 462 375 486 597 635 181 137 19 56 30 126 525 301 157 134 118 335 185 77 1 0 0 0
0 16 8 49 194 70 10 24 27 57 58 68 213 722 680 940 557 552 484 551 387 1190 1310 1210 727 279 104 54 6 30 0 66 165 615 746 684 686 500 469 275 242 53 15
0 10 31 27 138 216 114 65 78 148 192 171 206 60 208 657 417 314 413 474 1137 1089 1065 1119 896 639 303 83 28 0 5 4 36 159 338 619 850 469 489 148 158 70 98
0 0 35 64 67 276 276 322 147 188 147 137 44 146 535 654 189 476 395 280 573 574 912 1080 826 659 309 147 65 59 49 40 28 112 150 140 193 185 177 101 35 35 13
9 4 9 103 116 149 407 655 277 429 335 81 45 90 53 353 378 327 335 490 544 507 837 885 310 269 346 248 204 111 95 71 37 32 75 60 92 119 122 119 93 69 9
35 28 12 23 221 264 824 697 605 652 404 306 286 491 263 330 692 166 385 258 996 990 851 638 559 352 185 217 257 186 77 101 61 11 55 65 65 63 73 60 33 29 8
32 42 43 36 42 201 980 1129 561 630 605 586 596 392 112 305 118 11 3 124 507 424 449 608 684 476 179 156 94 130 139 76 59 4 0 27 90 71 108 112 78 35 35
45 41 48 31 82 116 757 859 1220 753 425 307 145 79 55 92 104 13 0 31 126 296 372 365 351 435 323 98 16 22 50 66 49 41 7 25 2 87 152 134 120 21 4
50 53 55 77 29 60 248 836 1165 823 302 192 144 107 127 142 104 0 0 0 47 98 288 336 388 443 181 24 29 22 25 0 4 28 10 18 50 83 116 120 61 7 1
174 177 166 124 140 151 328 275 1158 1160 316 202 185 250 236 207 40 9 0 0 5 50 68 235 569 400 216 105 91 71 6 0 15 11 24 12 26 2 0 0 0 0 0
252 361 328 420 372 355 570 224 141 121 41 1 12 31 44 53 57 38 13 0 0 79 31 109 57 352 217 292 244 152 24 4 7 11 20 22 17 12 0 0 2 0 0
352 496 560 293 365 505 692 135 302 6 12 0 26 34 44 41 53 41 36 9 0 18 36 2 19 31 143 383 312 234 91 39 12 1 12 0 13 6 0 0 0 0 3
280 56 406 492 546 486 618 382 54 109 237 256 15 46 43 20 26 37 31 41 49 7 22 21 4 0 9 384 318 136 146 130 104 56 42 20 25 8 3 0 23 27 69
198 396 453 680 881 462 309 536 569 299 245 324 189 7 19 10 10 6 29 56 99 69 68 70 66 0 0 156 295 112 116 150 183 154 105 43 65 36 33 56 54 15 10
297 39 17 119 464 520 410 355 556 421 278 268 84 107 15 0 0 0 10 31 69 102 39 53 38 4 0 23 17 37 23 53 86 143 32 80 13 10 5 1 1 0 1
266 189 40 98 122 323 282 216 128 314 328 107 52 8 15 0 0 24 6 12 17 1 46 47 18 33 12 0 0 2 3 1 0 0 0 0 0 0 0 0 0 0 0
0 0 21 171 124 222 317 19 52 78 74 111 64 28 8 14 12 7 8 0 16 1 23 16 0 0 0 0 0 0 0 0 0 0 0 0 0 0 0 0 0 0 0
5 2 0 47 223 35 195 144 16 0 58 16 25 34 16 4 8 0 0 0 0 0 0 7 4 0 0 0 0 0 0 0 0 0 0 0 0 0 0 0 0 0 0
0 0 0 65 200 67 106 19 0 20 41 25 31 5 23 22 2 3 0 6 0 0 1 6 13 18 2 0 0 0 0 0 0 0 0 0 0 0 0 0 0 0 0
2 0 27 72 114 16 22 11 8 12 7 8 11 4 7 0 0 0 0 1 1 0 0 1 0 5 0 0 0 0 0 0 0 0 0 0 0 0 0 0 0 0 0
0 21 14 15 14 21 16 3 10 1 0 0 0 0 2 0 0 0 0 1 2 1 2 0 0 0 0 0 0 0 0 0 0 0 0 0 0 0 0 1 4 0 5
CIN
0 -38 -102 -83 -20 -2 -1 -2 0 -3 -8 -11 -1 -12 -40 -103 -114 -131 -137 -158 -208 -169 -106 -106 -47 -73 -31 -35 -56 0 0 0 0 0 0 -24 -7 0 0 0 0 0 0
0 0 -80 -82 -71 -6 -11 -1 0 0 -7 0 -1 -14 -45 -86 -86 -139 -137 -146 -146 -158 -64 -44 -33 -68 -3 -10 -19 -8 0 -1 0 0 -4 0 0 0 0 0 0 0 0
0 0 -44 -16 -34 -2 -1 0 -1 -2 0 0 0 -1 -26 -26 -64 -76 -103 -116 -138 -86 -47 -18 -3 0 -2 -38 -12 -49 0 0 -60 0 0 0 0 0 0 0 0 -154 0
0 0 -1 -30 0 -13 -43 -5 -1 -6 -1 0 -1 -1 0 -1 -40 -39 -51 -68 -103 -135 -44 -4 -9 -3 -35 -14 -11 -30 -27 -36 -52 -79 0 0 0 -87 0 0 -66 -68 0
0 0 0 -1 -36 0 0 -88 -39 0 0 0 0 0 -1 0 -13 -38 -54 -65 -59 -57 -45 -10 -6 -31 -26 -39 -32 -36 -6 -35 -45 -40 -56 0 0 0 -68 -35 0 0 -46
-1 0 0 -7 0 -1 -64 -2 -57 -16 -37 -1 0 0 0 -1 -1 -62 -157 -4 -11 -6 -6 -2 -2 -25 -40 -76 -68 -88 -54 -6 -37 -11 -3 -1 -4 -2 -15 -1 -1 0 0
0 -35 -42 -5 -2 -2 -13 -52 -54 -75 -67 -55 -12 0 -1 0 -6 -6 -19 -6 -18 0 0 0 0 -22 -58 -77 -131 -56 0 -34 -35 -17 -7 -9 -7 -4 -3 -18 -7 -36 -23
0 -10 -8 -15 0 -1 -3 -7 -31 -31 -42 -48 -55 -101 -33 -11 -27 -27 -20 -9 0 0 0 0 0 -1 -6 -35 -79 -5 -1 -1 -23 -51 -48 -16 -4 -4 -2 -39 -30 -79 -24
0 0 -5 0 0 -1 -4 -25 -5 -14 -23 -51 -36 -44 0 0 -53 -20 -42 -61 0 -6 0 0 0 0 -1 -9 -8 -10 -2 0 -30 -50 -73 -67 -37 -21 -41 -72 -102 -105 -44
0 0 -11 0 0 0 0 0 0 -19 -3 -26 -38 -28 -41 0 -2 -13 -40 -23 -23 -19 -3 0 -36 -28 -6 -2 0 -1 0 -2 -2 -34 -61 -73 -56 -44 -37 -107 -66 -43 -31
0 0 0 -7 0 0 0 0 -2 -1 -32 -25 -24 -24 -29 -17 -3 -42 -5 -35 0 0 0 0 -4 -20 -13 -2 0 0 -5 -1 -3 -3 -77 -81 -30 -22 -38 -46 -28 -18 -51
0 0 0 0 -4 -1 0 0 0 -1 -15 -27 -6 -11 -12 -4 -37 -136 -179 -46 -3 -17 -9 -1 -1 -1 -22 -18 -17 -3 0 -1 0 -5 0 -66 -57 -27 -15 -18 -35 -24 -13
0 0 -1 -6 -5 -4 0 0 0 0 0 -2 0 0 -12 -15 -37 -151 0 -118 -36 -37 -7 -11 -13 -2 -11 -36 -73 -36 -1 0 0 0 -33 -26 0 -52 -17 -16 -7 -134 -19
-2 -1 0 0 -7 -7 -6 -3 0 0 0 0 0 -6 -18 -37 -36 0 0 0 -50 -84 -16 -25 -11 0 -4 -37 -45 -34 -13 0 -2 0 0 0 -9 -5 -6 -14 -27 -24 0
-2 0 -1 -4 -2 -2 -7 -15 0 -1 -15 -21 -1 -21 -37 -58 -136 -49 0 0 -36 -58 -32 0 0 0 -2 -12 -32 -20 -33 0 0 0 0 0 0 0 0 0 0 0 0
0 0 -1 0 -2 0 0 -12 -16 -28 -34 -112 -78 -65 -73 -83 -78 -79 -99 0 0 -18 -72 0 -24 0 0 -3 -2 -11 -13 -78 -30 -26 -4 -1 0 0 0 0 0 0 0
0 0 0 -2 0 0 0 -6 0 -10 -36 -3 -49 -43 -56 -64 -80 -81 -70 -97 -1 -10 -41 -68 -21 -7 0 0 -5 -5 -6 -35 -71 -6 -18 0 -1 0 0 0 0 0 -5
0 -13 -1 0 0 0 -1 -7 -11 0 0 0 -59 -36 -36 -67 -86 -76 -39 -26 -13 -8 -19 -11 -5 0 0 0 -1 -5 -1 -2 -6 -10 -16 -30 -6 -2 -6 -4 -36 -33 -29
0 0 -2 0 0 -3 0 0 -1 0 -1 0 -1 -57 -38 -54 -66 -95 -43 -5 0 0 0 -1 -8 0 0 -6 -1 -14 -12 -4 -1 -1 -2 -35 -11 -13 -19 -10 -21 -66 -134
-1 -10 -3 -1 -1 0 0 0 0 -1 -1 0 -10 0 -24 -10 0 -11 -58 -17 -1 0 -7 0 -6 -5 0 -22 -13 -31 -78 -38 -15 -6 -38 -3 -90 -113 -136 -27 -30 0 0
0 0 -2 0 0 0 0 0 -9 -1 0 -9 -1 0 -14 0 -1 -5 -1 -8 -14 -6 -5 -2 -4 -2 -1 0 0 0 0 0 0 0 0 0 0 0 0 0 0 0 0
0 0 0 -1 -1 -1 0 -8 -5 0 -2 0 -1 -1 -2 -3 0 -5 -3 0 -10 0 -2 -2 0 0 0 0 0 0 0 0 0 0 0 0 0 0 0 0 0 0 0
0 0 0 -1 0 -2 -1 -2 -5 0 0 0 0 0 0 0 0 0 0 0 0 -7 0 -3 -4 0 0 0 0 0 0 0 0 0 0 0 0 0 0 0 0 0 0
0 0 0 0 0 -1 -1 -1 0 0 0 0 -1 -1 -1 -6 0 0 0 0 0 0 0 -26 -5 -1 -5 0 0 0 0 0 0 0 0 0 0 0 0 0 0 0 0
0 0 0 0 0 0 0 0 0 -7 -9 0 0 0 0 0 0 0 0 0 0 0 0 0 0 -13 0 0 0 0 0 0 0 0 0 0 0 0 0 0 0 0 0
0 -1 -1 0 0 0 0 -1 0 0 0 0 0 0 0 0 0 0 0 0 0 0 -1 0 0 0 0 0 0 0 0 0 0 0 0 0 0 0 0 0 0 0 0
Wind_Speed
nan nan nan 63 67 62 59 57 54 53 53 52 51 48 50 51 49 48 44 45 48 52 54 61 64 61 53 nan nan nan nan nan nan nan nan nan nan nan nan nan nan nan nan
nan nan nan nan nan 68 67 61 60 55 57 57 58 53 50 48 49 47 45 47 48 51 53 54 55 nan 50 46 nan 38 nan nan nan nan nan nan nan nan nan nan nan nan nan
nan nan nan nan nan 68 68 68 66 63 60 58 55 54 49 50 48 47 44 49 51 49 46 41 35 39 46 45 nan nan nan nan nan nan nan nan nan nan nan nan nan nan nan
nan nan nan nan nan nan nan 70 69 68 64 64 59 54 53 51 51 46 45 46 44 46 nan 36 34 26 46 53 41 42 44 45 nan nan nan nan nan nan nan nan nan nan nan
nan nan nan 59 nan nan nan nan 69 68 67 60 56 49 45 44 43 40 41 40 39 32 31 26 22 18 35 39 38 43 47 46 nan nan nan nan nan nan nan nan nan nan nan
nan nan nan nan nan nan nan nan nan 64 65 65 56 50 44 46 45 43 nan 34 34 29 24 25 20 24 19 nan nan nan 35 41 37 40 40 36 32 33 nan nan nan nan nan
nan nan nan nan 62 nan nan nan nan nan nan nan 56 52 48 44 39 34 29 33 27 21 21 24 26 28 25 nan nan nan nan nan 35 37 36 36 35 37 34 37 31 nan nan
nan nan nan nan 61 67 70 nan nan 65 59 59 58 nan 48 43 37 36 36 31 26 22 20 23 25 21 29 nan nan nan nan nan nan 35 29 38 35 35 41 40 38 nan nan
nan nan nan nan nan 55 62 70 71 67 65 64 nan 62 60 48 42 32 29 27 27 22 18 15 24 23 18 24 nan nan nan nan nan 28 33 46 44 43 49 51 nan nan nan
nan nan nan 34 34 32 42 55 63 81 68 nan nan nan nan 63 53 48 40 31 33 29 25 24 22 22 28 29 30 27 nan nan nan nan nan nan nan 50 52 49 nan nan nan
nan nan nan nan 36 35 33 34 38 45 54 66 65 59 64 63 62 60 57 45 36 34 32 31 30 27 28 31 30 30 nan 35 nan nan nan nan nan nan nan nan nan nan nan
nan nan nan nan nan 38 36 36 33 33 36 44 54 49 60 65 65 nan nan 54 45 41 40 36 36 29 30 32 nan 30 27 nan nan nan nan nan nan nan 38 36 nan nan nan
nan nan nan nan nan 35 36 40 37 33 34 32 36 nan nan nan 65 nan nan nan 45 42 39 38 38 33 31 nan nan nan nan nan nan nan nan nan nan nan 42 39 36 nan nan
nan nan nan nan nan nan 33 42 40 37 37 32 31 35 46 54 58 nan nan nan nan nan 38 42 39 34 38 nan nan nan nan nan nan nan nan nan nan nan 38 47 nan nan nan
23 26 31 34 34 30 31 34 37 40 49 41 36 34 34 43 nan nan nan nan nan nan nan 44 42 36 39 42 nan nan nan nan nan nan nan nan nan nan nan nan nan nan nan
18 20 20 20 26 28 31 34 37 46 nan nan nan nan nan nan nan nan nan nan nan nan nan 41 nan 44 43 44 40 34 nan nan nan nan nan nan nan nan nan nan nan nan nan
19 17 18 16 14 17 25 31 36 nan nan nan nan nan nan nan nan nan nan nan nan nan nan nan nan nan 53 48 35 28 nan nan nan nan nan nan nan nan nan nan nan nan nan
19 nan 23 24 22 18 19 22 nan 11 32 41 nan nan nan nan nan nan nan nan nan nan nan nan nan nan nan 35 33 26 33 30 14 nan nan nan nan nan nan nan nan nan nan
17 20 24 22 22 22 19 18 33 30 32 31 37 nan nan nan nan nan nan nan nan nan nan nan nan nan nan 33 36 33 35 28 16 14 11 nan nan nan nan nan nan nan nan
17 nan nan 15 17 17 16 16 13 23 27 28 nan 34 nan nan nan nan nan nan nan 62 nan nan nan nan nan nan nan nan nan nan nan 14 nan nan nan nan nan nan nan nan nan
20 20 nan nan 14 16 16 20 20 17 22 38 nan nan nan nan nan nan nan nan nan nan nan nan nan nan nan nan nan nan nan nan nan nan nan nan nan nan nan nan nan nan nan
nan nan nan 12 11 12 8 nan nan nan nan 22 nan nan nan nan nan nan nan nan nan nan nan nan nan nan nan nan nan nan nan nan nan nan nan nan nan nan nan nan nan nan nan
nan nan nan nan 9 nan 6 11 nan nan nan nan nan nan nan nan nan nan nan nan nan nan nan nan nan nan nan nan nan nan nan nan nan nan nan nan nan nan nan nan nan nan nan
nan nan nan nan 8 nan 8 nan nan nan nan nan nan nan nan nan nan nan nan nan nan nan nan nan nan nan nan nan nan nan nan nan nan nan nan nan nan nan nan nan nan nan nan
nan nan nan nan 14 nan nan nan nan nan nan nan nan nan nan nan nan nan nan nan nan nan nan nan nan nan nan nan nan nan nan nan nan nan nan nan nan nan nan nan nan nan nan
nan nan nan nan nan nan nan nan nan nan nan nan nan nan nan nan nan nan nan nan nan nan nan nan nan nan nan nan nan nan nan nan nan nan nan nan nan nan nan nan nan nan nan
Wind_Direction
nan nan nan 243 245 243 252 254 251 256 264 268 270 275 280 286 288 290 290 289 288 290 289 292 301 294 273 nan nan nan nan nan nan nan nan nan nan nan nan nan nan nan nan
nan nan nan nan nan 245 246 248 256 259 261 263 266 267 274 280 281 286 289 290 293 294 297 292 302 nan 282 274 nan 271 nan nan nan nan nan nan nan nan nan nan nan nan nan
nan nan nan nan nan 240 243 248 248 256 255 255 258 266 267 271 275 278 282 287 296 296 300 300 295 300 277 271 nan nan nan nan nan nan nan nan nan nan nan nan nan nan nan
nan nan nan nan nan nan nan 239 247 252 253 257 260 267 271 269 270 274 280 283 288 302 nan 300 279 295 278 270 265 253 260 262 nan nan nan nan nan nan nan nan nan nan nan
nan nan nan 244 nan nan nan nan 239 245 251 256 258 257 259 263 266 270 274 280 290 301 315 316 293 279 294 268 255 261 263 263 nan nan nan nan nan nan nan nan nan nan nan
nan nan nan nan nan nan nan nan nan 243 245 250 252 253 256 256 250 261 nan 266 278 289 303 306 272 268 268 nan nan nan 264 261 269 273 270 276 277 280 nan nan nan nan nan
nan nan nan nan 248 nan nan nan nan nan nan nan 244 251 251 252 261 259 255 258 257 269 292 295 272 266 270 nan nan nan nan nan 252 252 260 252 258 271 272 274 273 nan nan
nan nan nan nan 243 254 248 nan nan 236 236 238 242 nan 237 234 247 242 248 250 254 267 277 277 294 291 274 nan nan nan nan nan nan 257 273 272 261 259 274 269 262 nan nan
nan nan nan nan nan 245 254 255 244 230 231 236 nan 232 233 221 219 231 236 243 257 255 249 263 280 286 288 300 nan nan nan nan nan 275 268 267 274 270 276 274 nan nan nan
nan nan nan 256 261 262 253 258 252 250 239 nan nan nan nan 247 252 259 259 236 252 248 249 253 271 280 283 290 285 288 nan nan nan nan nan nan nan 274 280 277 nan nan nan
nan nan nan nan 261 259 261 268 266 263 257 251 238 236 233 238 243 244 241 240 229 244 251 254 254 274 283 286 291 287 nan 277 nan nan nan nan nan nan nan nan nan nan nan
nan nan nan nan nan 262 262 266 271 268 259 248 256 250 241 235 239 nan nan 243 238 241 243 255 259 270 277 284 nan 291 289 nan nan nan nan nan nan nan 286 277 nan nan nan
nan nan nan nan nan 259 257 260 259 266 265 258 249 nan nan nan 242 nan nan nan 235 240 236 232 238 250 265 nan nan nan nan nan nan nan nan nan nan nan 289 280 281 nan nan
nan nan nan nan nan nan 253 254 258 254 260 261 262 254 241 236 238 nan nan nan nan nan 241 232 236 240 255 nan nan nan nan nan nan nan nan nan nan nan 271 266 nan nan nan
288 286 274 260 263 259 252 253 255 251 249 250 251 253 253 244 nan nan nan nan nan nan nan 240 236 249 257 264 nan nan nan nan nan nan nan nan nan nan nan nan nan nan nan
290 295 290 277 261 249 252 253 253 252 nan nan nan nan nan nan nan nan nan nan nan nan nan 238 nan 239 252 256 266 274 nan nan nan nan nan nan nan nan nan nan nan nan nan
283 275 281 296 284 266 253 245 276 nan nan nan nan nan nan nan nan nan nan nan nan nan nan nan nan nan 241 247 255 257 nan nan nan nan nan nan nan nan nan nan nan nan nan
271 nan 274 279 272 265 266 243 nan 194 245 244 nan nan nan nan nan nan nan nan nan nan nan nan nan nan nan 228 232 247 257 263 270 nan nan nan nan nan nan nan nan nan nan
273 272 275 279 270 261 260 255 244 262 257 235 247 nan nan nan nan nan nan nan nan nan nan nan nan nan nan 220 232 244 253 247 259 244 272 nan nan nan nan nan nan nan nan
281 nan nan 275 273 249 240 239 269 256 249 236 nan 238 nan nan nan nan nan nan nan 224 nan nan nan nan nan nan nan nan nan nan nan 253 nan nan nan nan nan nan nan nan nan
279 279 nan nan 273 254 240 239 251 256 242 226 nan nan nan nan nan nan nan nan nan nan nan nan nan nan nan nan nan nan nan nan nan nan nan nan nan nan nan nan nan nan nan
nan nan nan 245 235 244 252 nan nan nan nan 238 nan nan nan nan nan nan nan nan nan nan nan nan nan nan nan nan nan nan nan nan nan nan nan nan nan nan nan nan nan nan nan
nan nan nan nan 217 nan 243 264 nan nan nan nan nan nan nan nan nan nan nan nan nan nan nan nan nan nan nan nan nan nan nan nan nan nan nan nan nan nan nan nan nan nan nan
nan nan nan nan 172 nan 200 nan nan nan nan nan nan nan nan nan nan nan nan nan nan nan nan nan nan nan nan nan nan nan nan nan nan nan nan nan nan nan nan nan nan nan nan
nan nan nan nan 186 nan nan nan nan nan nan nan nan nan nan nan nan nan nan nan nan nan nan nan nan nan nan nan nan nan nan nan nan nan nan nan nan nan nan nan nan nan nan
nan nan nan nan nan nan nan nan nan nan nan nan nan nan nan nan nan nan nan nan nan nan nan nan nan nan nan nan nan nan nan nan nan nan nan nan nan nan nan nan nan nan nan